"Time","Value","Approval","myLocation"
"2023-03-29 00:00",4.575,"Working","OW314"
"2023-03-29 01:00",4.575,"Working","OW314"
"2023-03-29 02:00",4.575,"Working","OW314"
"2023-03-29 03:00",4.576,"Working","OW314"
"2023-03-29 04:00",4.578,"Working","OW314"
"2023-03-29 05:00",4.579,"Working","OW314"
"2023-03-29 06:00",4.582,"Working","OW314"
"2023-03-29 07:00",4.585,"Working","OW314"
"2023-03-29 08:00",4.586,"Working","OW314"
"2023-03-29 09:00",4.591,"Working","OW314"
"2023-03-29 10:00",4.592,"Working","OW314"
"2023-03-29 11:00",4.593,"Working","OW314"
"2023-03-29 12:00",4.596,"Working","OW314"
"2023-03-29 13:00",4.599,"Working","OW314"
"2023-03-29 14:00",4.597,"Working","OW314"
"2023-03-29 15:00",4.6,"Working","OW314"
"2023-03-29 16:00",4.6,"Working","OW314"
"2023-03-29 17:00",4.602,"Working","OW314"
"2023-03-29 18:00",4.604,"Working","OW314"
"2023-03-29 19:00",4.604,"Working","OW314"
"2023-03-29 20:00",4.606,"Working","OW314"
"2023-03-29 21:00",4.604,"Working","OW314"
"2023-03-29 22:00",4.602,"Working","OW314"
"2023-03-29 23:00",4.596,"Working","OW314"
"2023-03-30 00:00",4.592,"Working","OW314"
"2023-03-30 01:00",4.591,"Working","OW314"
"2023-03-30 02:00",4.589,"Working","OW314"
"2023-03-30 03:00",4.588,"Working","OW314"
"2023-03-30 04:00",4.586,"Working","OW314"
"2023-03-30 05:00",4.588,"Working","OW314"
"2023-03-30 06:00",4.588,"Working","OW314"
"2023-03-30 07:00",4.589,"Working","OW314"
"2023-03-30 08:00",4.591,"Working","OW314"
"2023-03-30 09:00",4.591,"Working","OW314"
"2023-03-30 10:00",4.592,"Working","OW314"
"2023-03-30 11:00",4.591,"Working","OW314"
"2023-03-30 12:00",4.595,"Working","OW314"
"2023-03-30 13:00",4.596,"Working","OW314"
"2023-03-30 14:00",4.597,"Working","OW314"
"2023-03-30 15:00",4.598,"Working","OW314"
"2023-03-30 16:00",4.6,"Working","OW314"
"2023-03-30 17:00",4.603,"Working","OW314"
"2023-03-30 18:00",4.605,"Working","OW314"
"2023-03-30 19:00",4.605,"Working","OW314"
"2023-03-30 20:00",4.609,"Working","OW314"
"2023-03-30 21:00",4.611,"Working","OW314"
"2023-03-30 22:00",4.613,"Working","OW314"
"2023-03-30 23:00",4.613,"Working","OW314"
"2023-03-31 00:00",4.616,"Working","OW314"
"2023-03-31 01:00",4.617,"Working","OW314"
"2023-03-31 02:00",4.619,"Working","OW314"
"2023-03-31 03:00",4.621,"Working","OW314"
"2023-03-31 04:00",4.621,"Working","OW314"
"2023-03-31 05:00",4.625,"Working","OW314"
"2023-03-31 06:00",4.627,"Working","OW314"
"2023-03-31 07:00",4.631,"Working","OW314"
"2023-03-31 08:00",4.633,"Working","OW314"
"2023-03-31 09:00",4.636,"Working","OW314"
"2023-03-31 10:00",4.636,"Working","OW314"
"2023-03-31 11:00",4.639,"Working","OW314"
"2023-03-31 12:00",4.64,"Working","OW314"
"2023-03-31 13:00",4.64,"Working","OW314"
"2023-03-31 14:00",4.642,"Working","OW314"
"2023-03-31 15:00",4.641,"Working","OW314"
"2023-03-31 16:00",4.641,"Working","OW314"
"2023-03-31 17:00",4.642,"Working","OW314"
"2023-03-31 18:00",4.642,"Working","OW314"
"2023-03-31 19:00",4.642,"Working","OW314"
"2023-03-31 20:00",4.642,"Working","OW314"
"2023-03-31 21:00",4.642,"Working","OW314"
"2023-03-31 22:00",4.641,"Working","OW314"
"2023-03-31 23:00",4.638,"Working","OW314"
"2023-04-01 00:00",4.633,"Working","OW314"
"2023-04-01 01:00",4.63,"Working","OW314"
"2023-04-01 02:00",4.627,"Working","OW314"
"2023-04-01 03:00",4.627,"Working","OW314"
"2023-04-01 04:00",4.624,"Working","OW314"
"2023-04-01 05:00",4.625,"Working","OW314"
"2023-04-01 06:00",4.626,"Working","OW314"
"2023-04-01 07:00",4.626,"Working","OW314"
"2023-04-01 08:00",4.626,"Working","OW314"
"2023-04-01 09:00",4.626,"Working","OW314"
"2023-04-01 10:00",4.628,"Working","OW314"
"2023-04-01 11:00",4.629,"Working","OW314"
"2023-04-01 12:00",4.632,"Working","OW314"
"2023-04-01 13:00",4.632,"Working","OW314"
"2023-04-01 14:00",4.634,"Working","OW314"
"2023-04-01 15:00",4.635,"Working","OW314"
"2023-04-01 16:00",4.637,"Working","OW314"
"2023-04-01 17:00",4.639,"Working","OW314"
"2023-04-01 18:00",4.643,"Working","OW314"
"2023-04-01 19:00",4.644,"Working","OW314"
"2023-04-01 20:00",4.646,"Working","OW314"
"2023-04-01 21:00",4.65,"Working","OW314"
"2023-04-01 22:00",4.651,"Working","OW314"
"2023-04-01 23:00",4.653,"Working","OW314"
"2023-04-02 00:00",4.653,"Working","OW314"
"2023-04-02 01:00",4.656,"Working","OW314"
"2023-04-02 02:00",4.657,"Working","OW314"
"2023-04-02 03:00",4.659,"Working","OW314"
"2023-04-02 04:00",4.661,"Working","OW314"
"2023-04-02 05:00",4.662,"Working","OW314"
"2023-04-02 06:00",4.664,"Working","OW314"
"2023-04-02 07:00",4.664,"Working","OW314"
"2023-04-02 08:00",4.666,"Working","OW314"
"2023-04-02 09:00",4.668,"Working","OW314"
"2023-04-02 10:00",4.669,"Working","OW314"
"2023-04-02 11:00",4.668,"Working","OW314"
"2023-04-02 12:00",4.668,"Working","OW314"
"2023-04-02 13:00",4.665,"Working","OW314"
"2023-04-02 14:00",4.663,"Working","OW314"
"2023-04-02 15:00",4.664,"Working","OW314"
"2023-04-02 16:00",4.666,"Working","OW314"
"2023-04-02 17:00",4.665,"Working","OW314"
"2023-04-02 18:00",4.665,"Working","OW314"
"2023-04-02 19:00",4.668,"Working","OW314"
"2023-04-02 20:00",4.669,"Working","OW314"
"2023-04-02 21:00",4.671,"Working","OW314"
"2023-04-02 22:00",4.672,"Working","OW314"
"2023-04-02 23:00",4.675,"Working","OW314"
"2023-04-03 00:00",4.676,"Working","OW314"
"2023-04-03 01:00",4.677,"Working","OW314"
"2023-04-03 02:00",4.677,"Working","OW314"
"2023-04-03 03:00",4.678,"Working","OW314"
"2023-04-03 04:00",4.68,"Working","OW314"
"2023-04-03 05:00",4.683,"Working","OW314"
"2023-04-03 06:00",4.684,"Working","OW314"
"2023-04-03 07:00",4.686,"Working","OW314"
"2023-04-03 08:00",4.688,"Working","OW314"
"2023-04-03 09:00",4.689,"Working","OW314"
"2023-04-03 10:00",4.69,"Working","OW314"
"2023-04-03 11:00",4.692,"Working","OW314"
"2023-04-03 12:00",4.693,"Working","OW314"
"2023-04-03 13:00",4.694,"Working","OW314"
"2023-04-03 14:00",4.697,"Working","OW314"
"2023-04-03 15:00",4.698,"Working","OW314"
"2023-04-03 16:00",4.698,"Working","OW314"
"2023-04-03 17:00",4.702,"Working","OW314"
"2023-04-03 18:00",4.701,"Working","OW314"
"2023-04-03 19:00",4.704,"Working","OW314"
"2023-04-03 20:00",4.705,"Working","OW314"
"2023-04-03 21:00",4.706,"Working","OW314"
"2023-04-03 22:00",4.705,"Working","OW314"
"2023-04-03 23:00",4.703,"Working","OW314"
"2023-04-04 00:00",4.7,"Working","OW314"
"2023-04-04 01:00",4.695,"Working","OW314"
"2023-04-04 02:00",4.696,"Working","OW314"
"2023-04-04 03:00",4.694,"Working","OW314"
"2023-04-04 04:00",4.695,"Working","OW314"
"2023-04-04 05:00",4.695,"Working","OW314"
"2023-04-04 06:00",4.693,"Working","OW314"
"2023-04-04 07:00",4.693,"Working","OW314"
"2023-04-04 08:00",4.693,"Working","OW314"
"2023-04-04 09:00",4.695,"Working","OW314"
"2023-04-04 10:00",4.695,"Working","OW314"
"2023-04-04 11:00",4.695,"Working","OW314"
"2023-04-04 12:00",4.696,"Working","OW314"
"2023-04-04 13:00",4.696,"Working","OW314"
"2023-04-04 14:00",4.698,"Working","OW314"
"2023-04-04 15:00",4.7,"Working","OW314"
"2023-04-04 16:00",4.701,"Working","OW314"
"2023-04-04 17:00",4.704,"Working","OW314"
"2023-04-04 18:00",4.706,"Working","OW314"
"2023-04-04 19:00",4.71,"Working","OW314"
"2023-04-04 20:00",4.711,"Working","OW314"
"2023-04-04 21:00",4.712,"Working","OW314"
"2023-04-04 22:00",4.715,"Working","OW314"
"2023-04-04 23:00",4.713,"Working","OW314"
"2023-04-05 00:00",4.715,"Working","OW314"
"2023-04-05 01:00",4.716,"Working","OW314"
"2023-04-05 02:00",4.714,"Working","OW314"
"2023-04-05 03:00",4.713,"Working","OW314"
"2023-04-05 04:00",4.71,"Working","OW314"
"2023-04-05 05:00",4.713,"Working","OW314"
"2023-04-05 06:00",4.712,"Working","OW314"
"2023-04-05 07:00",4.713,"Working","OW314"
"2023-04-05 08:00",4.712,"Working","OW314"
"2023-04-05 09:00",4.712,"Working","OW314"
"2023-04-05 10:00",4.713,"Working","OW314"
"2023-04-05 11:00",4.711,"Working","OW314"
"2023-04-05 12:00",4.71,"Working","OW314"
"2023-04-05 13:00",4.708,"Working","OW314"
"2023-04-05 14:00",4.706,"Working","OW314"
"2023-04-05 15:00",4.703,"Working","OW314"
"2023-04-05 16:00",4.702,"Working","OW314"
"2023-04-05 17:00",4.704,"Working","OW314"
"2023-04-05 18:00",4.703,"Working","OW314"
"2023-04-05 19:00",4.701,"Working","OW314"
"2023-04-05 20:00",4.699,"Working","OW314"
"2023-04-05 21:00",4.696,"Working","OW314"
"2023-04-05 22:00",4.691,"Working","OW314"
"2023-04-05 23:00",4.686,"Working","OW314"
"2023-04-06 00:00",4.683,"Working","OW314"
"2023-04-06 01:00",4.681,"Working","OW314"
"2023-04-06 02:00",4.678,"Working","OW314"
"2023-04-06 03:00",4.672,"Working","OW314"
"2023-04-06 04:00",4.668,"Working","OW314"
"2023-04-06 05:00",4.667,"Working","OW314"
"2023-04-06 06:00",4.667,"Working","OW314"
"2023-04-06 07:00",4.667,"Working","OW314"
"2023-04-06 08:00",4.66,"Working","OW314"
"2023-04-06 09:00",4.654,"Working","OW314"
"2023-04-06 10:00",4.648,"Working","OW314"
"2023-04-06 11:00",4.643,"Working","OW314"
"2023-04-06 12:00",4.636,"Working","OW314"
"2023-04-06 13:00",4.631,"Working","OW314"
"2023-04-06 14:00",4.626,"Working","OW314"
"2023-04-06 15:00",4.624,"Working","OW314"
"2023-04-06 16:00",4.622,"Working","OW314"
"2023-04-06 17:00",4.62,"Working","OW314"
"2023-04-06 18:00",4.619,"Working","OW314"
"2023-04-06 19:00",4.621,"Working","OW314"
"2023-04-06 20:00",4.616,"Working","OW314"
"2023-04-06 21:00",4.613,"Working","OW314"
"2023-04-06 22:00",4.612,"Working","OW314"
"2023-04-06 23:00",4.611,"Working","OW314"
"2023-04-07 00:00",4.605,"Working","OW314"
"2023-04-07 01:00",4.6,"Working","OW314"
"2023-04-07 02:00",4.597,"Working","OW314"
"2023-04-07 03:00",4.597,"Working","OW314"
"2023-04-07 04:00",4.595,"Working","OW314"
"2023-04-07 05:00",4.595,"Working","OW314"
"2023-04-07 06:00",4.597,"Working","OW314"
"2023-04-07 07:00",4.598,"Working","OW314"
"2023-04-07 08:00",4.597,"Working","OW314"
"2023-04-07 09:00",4.6,"Working","OW314"
"2023-04-07 10:00",4.602,"Working","OW314"
"2023-04-07 11:00",4.606,"Working","OW314"
"2023-04-07 12:00",4.608,"Working","OW314"
"2023-04-07 13:00",4.613,"Working","OW314"
"2023-04-07 14:00",4.618,"Working","OW314"
"2023-04-07 15:00",4.623,"Working","OW314"
"2023-04-07 16:00",4.625,"Working","OW314"
"2023-04-07 17:00",4.631,"Working","OW314"
"2023-04-07 18:00",4.634,"Working","OW314"
"2023-04-07 19:00",4.639,"Working","OW314"
"2023-04-07 20:00",4.642,"Working","OW314"
"2023-04-07 21:00",4.646,"Working","OW314"
"2023-04-07 22:00",4.65,"Working","OW314"
"2023-04-07 23:00",4.651,"Working","OW314"
"2023-04-08 00:00",4.655,"Working","OW314"
"2023-04-08 01:00",4.656,"Working","OW314"
"2023-04-08 02:00",4.659,"Working","OW314"
"2023-04-08 03:00",4.663,"Working","OW314"
"2023-04-08 04:00",4.667,"Working","OW314"
"2023-04-08 05:00",4.67,"Working","OW314"
"2023-04-08 06:00",4.672,"Working","OW314"
"2023-04-08 07:00",4.674,"Working","OW314"
"2023-04-08 08:00",4.677,"Working","OW314"
"2023-04-08 09:00",4.678,"Working","OW314"
"2023-04-08 10:00",4.68,"Working","OW314"
"2023-04-08 11:00",4.681,"Working","OW314"
"2023-04-08 12:00",4.682,"Working","OW314"
"2023-04-08 13:00",4.68,"Working","OW314"
"2023-04-08 14:00",4.68,"Working","OW314"
"2023-04-08 15:00",4.68,"Working","OW314"
"2023-04-08 16:00",4.68,"Working","OW314"
"2023-04-08 17:00",4.681,"Working","OW314"
"2023-04-08 18:00",4.683,"Working","OW314"
"2023-04-08 19:00",4.685,"Working","OW314"
"2023-04-08 20:00",4.688,"Working","OW314"
"2023-04-08 21:00",4.69,"Working","OW314"
"2023-04-08 22:00",4.693,"Working","OW314"
"2023-04-08 23:00",4.696,"Working","OW314"
"2023-04-09 00:00",4.697,"Working","OW314"
"2023-04-09 01:00",4.703,"Working","OW314"
"2023-04-09 02:00",4.703,"Working","OW314"
"2023-04-09 03:00",4.706,"Working","OW314"
"2023-04-09 04:00",4.71,"Working","OW314"
"2023-04-09 05:00",4.713,"Working","OW314"
"2023-04-09 06:00",4.714,"Working","OW314"
"2023-04-09 07:00",4.717,"Working","OW314"
"2023-04-09 08:00",4.717,"Working","OW314"
"2023-04-09 09:00",4.718,"Working","OW314"
"2023-04-09 10:00",4.716,"Working","OW314"
"2023-04-09 11:00",4.715,"Working","OW314"
"2023-04-09 12:00",4.713,"Working","OW314"
"2023-04-09 13:00",4.707,"Working","OW314"
"2023-04-09 14:00",4.701,"Working","OW314"
"2023-04-09 15:00",4.697,"Working","OW314"
"2023-04-09 16:00",4.69,"Working","OW314"
"2023-04-09 17:00",4.682,"Working","OW314"
"2023-04-09 18:00",4.678,"Working","OW314"
"2023-04-09 19:00",4.677,"Working","OW314"
"2023-04-09 20:00",4.678,"Working","OW314"
"2023-04-09 21:00",4.677,"Working","OW314"
"2023-04-09 22:00",4.678,"Working","OW314"
"2023-04-09 23:00",4.679,"Working","OW314"
"2023-04-10 00:00",4.683,"Working","OW314"
"2023-04-10 01:00",4.686,"Working","OW314"
"2023-04-10 02:00",4.69,"Working","OW314"
"2023-04-10 03:00",4.696,"Working","OW314"
"2023-04-10 04:00",4.703,"Working","OW314"
"2023-04-10 05:00",4.711,"Working","OW314"
"2023-04-10 06:00",4.717,"Working","OW314"
"2023-04-10 07:00",4.725,"Working","OW314"
"2023-04-10 08:00",4.733,"Working","OW314"
"2023-04-10 09:00",4.74,"Working","OW314"
"2023-04-10 10:00",4.745,"Working","OW314"
"2023-04-10 11:00",4.749,"Working","OW314"
"2023-04-10 12:00",4.749,"Working","OW314"
"2023-04-10 13:00",4.751,"Working","OW314"
"2023-04-10 14:00",4.751,"Working","OW314"
"2023-04-10 15:00",4.751,"Working","OW314"
"2023-04-10 16:00",4.75,"Working","OW314"
"2023-04-10 17:00",4.748,"Working","OW314"
"2023-04-10 18:00",4.744,"Working","OW314"
"2023-04-10 19:00",4.739,"Working","OW314"
"2023-04-10 20:00",4.734,"Working","OW314"
"2023-04-10 21:00",4.728,"Working","OW314"
"2023-04-10 22:00",4.722,"Working","OW314"
"2023-04-10 23:00",4.716,"Working","OW314"
"2023-04-11 00:00",4.708,"Working","OW314"
"2023-04-11 01:00",4.705,"Working","OW314"
"2023-04-11 02:00",4.696,"Working","OW314"
"2023-04-11 03:00",4.691,"Working","OW314"
"2023-04-11 04:00",4.687,"Working","OW314"
"2023-04-11 05:00",4.682,"Working","OW314"
"2023-04-11 06:00",4.679,"Working","OW314"
"2023-04-11 07:00",4.679,"Working","OW314"
"2023-04-11 08:00",4.675,"Working","OW314"
"2023-04-11 09:00",4.674,"Working","OW314"
"2023-04-11 10:00",4.667,"Working","OW314"
"2023-04-11 11:00",4.662,"Working","OW314"
"2023-04-11 12:00",4.658,"Working","OW314"
"2023-04-11 13:00",4.658,"Working","OW314"
"2023-04-11 14:00",4.657,"Working","OW314"
"2023-04-11 15:00",4.659,"Working","OW314"
"2023-04-11 16:00",4.659,"Working","OW314"
"2023-04-11 17:00",4.661,"Working","OW314"
"2023-04-11 18:00",4.662,"Working","OW314"
"2023-04-11 19:00",4.666,"Working","OW314"
"2023-04-11 20:00",4.672,"Working","OW314"
"2023-04-11 21:00",4.676,"Working","OW314"
"2023-04-11 22:00",4.68,"Working","OW314"
"2023-04-11 23:00",4.683,"Working","OW314"
"2023-04-12 00:00",4.688,"Working","OW314"
"2023-04-12 01:00",4.692,"Working","OW314"
"2023-04-12 02:00",4.696,"Working","OW314"
"2023-04-12 03:00",4.698,"Working","OW314"
"2023-04-12 04:00",4.703,"Working","OW314"
"2023-04-12 05:00",4.704,"Working","OW314"
"2023-04-12 06:00",4.707,"Working","OW314"
"2023-04-12 07:00",4.711,"Working","OW314"
"2023-04-12 08:00",4.712,"Working","OW314"
"2023-04-12 09:00",4.716,"Working","OW314"
"2023-04-12 10:00",4.718,"Working","OW314"
"2023-04-12 11:00",4.719,"Working","OW314"
"2023-04-12 12:00",4.719,"Working","OW314"
"2023-04-12 13:00",4.719,"Working","OW314"
"2023-04-12 14:00",4.721,"Working","OW314"
"2023-04-12 15:00",4.719,"Working","OW314"
"2023-04-12 16:00",4.722,"Working","OW314"
"2023-04-12 17:00",4.722,"Working","OW314"
"2023-04-12 18:00",4.723,"Working","OW314"
"2023-04-12 19:00",4.722,"Working","OW314"
"2023-04-12 20:00",4.723,"Working","OW314"
"2023-04-12 21:00",4.717,"Working","OW314"
"2023-04-12 22:00",4.716,"Working","OW314"
"2023-04-12 23:00",4.715,"Working","OW314"
"2023-04-13 00:00",4.709,"Working","OW314"
"2023-04-13 01:00",4.7,"Working","OW314"
"2023-04-13 02:00",4.697,"Working","OW314"
"2023-04-13 03:00",4.694,"Working","OW314"
"2023-04-13 04:00",4.692,"Working","OW314"
"2023-04-13 05:00",4.691,"Working","OW314"
"2023-04-13 06:00",4.69,"Working","OW314"
"2023-04-13 07:00",4.688,"Working","OW314"
"2023-04-13 08:00",4.687,"Working","OW314"
"2023-04-13 09:00",4.685,"Working","OW314"
"2023-04-13 10:00",4.683,"Working","OW314"
"2023-04-13 11:00",4.68,"Working","OW314"
"2023-04-13 12:00",4.678,"Working","OW314"
"2023-04-13 13:00",4.673,"Working","OW314"
"2023-04-13 14:00",4.674,"Working","OW314"
"2023-04-13 15:00",4.674,"Working","OW314"
"2023-04-13 16:00",4.672,"Working","OW314"
"2023-04-13 17:00",4.673,"Working","OW314"
"2023-04-13 18:00",4.673,"Working","OW314"
"2023-04-13 19:00",4.673,"Working","OW314"
"2023-04-13 20:00",4.672,"Working","OW314"
"2023-04-13 21:00",4.669,"Working","OW314"
"2023-04-13 22:00",4.671,"Working","OW314"
"2023-04-13 23:00",4.67,"Working","OW314"
"2023-04-14 00:00",4.668,"Working","OW314"
"2023-04-14 01:00",4.667,"Working","OW314"
"2023-04-14 02:00",4.665,"Working","OW314"
"2023-04-14 03:00",4.666,"Working","OW314"
"2023-04-14 04:00",4.665,"Working","OW314"
"2023-04-14 05:00",4.666,"Working","OW314"
"2023-04-14 06:00",4.666,"Working","OW314"
"2023-04-14 07:00",4.668,"Working","OW314"
"2023-04-14 08:00",4.668,"Working","OW314"
"2023-04-14 09:00",4.669,"Working","OW314"
"2023-04-14 10:00",4.668,"Working","OW314"
"2023-04-14 11:00",4.667,"Working","OW314"
"2023-04-14 12:00",4.67,"Working","OW314"
"2023-04-14 13:00",4.668,"Working","OW314"
"2023-04-14 14:00",4.668,"Working","OW314"
"2023-04-14 15:00",4.668,"Working","OW314"
"2023-04-14 16:00",4.671,"Working","OW314"
"2023-04-14 17:00",4.671,"Working","OW314"
"2023-04-14 18:00",4.672,"Working","OW314"
"2023-04-14 19:00",4.672,"Working","OW314"
"2023-04-14 20:00",4.671,"Working","OW314"
"2023-04-14 21:00",4.674,"Working","OW314"
"2023-04-14 22:00",4.674,"Working","OW314"
"2023-04-14 23:00",4.672,"Working","OW314"
"2023-04-15 00:00",4.671,"Working","OW314"
"2023-04-15 01:00",4.67,"Working","OW314"
"2023-04-15 02:00",4.669,"Working","OW314"
"2023-04-15 03:00",4.667,"Working","OW314"
"2023-04-15 04:00",4.667,"Working","OW314"
"2023-04-15 05:00",4.665,"Working","OW314"
"2023-04-15 06:00",4.668,"Working","OW314"
"2023-04-15 07:00",4.666,"Working","OW314"
"2023-04-15 08:00",4.669,"Working","OW314"
"2023-04-15 09:00",4.669,"Working","OW314"
"2023-04-15 10:00",4.67,"Working","OW314"
"2023-04-15 11:00",4.67,"Working","OW314"
"2023-04-15 12:00",4.671,"Working","OW314"
"2023-04-15 13:00",4.669,"Working","OW314"
"2023-04-15 14:00",4.668,"Working","OW314"
"2023-04-15 15:00",4.669,"Working","OW314"
"2023-04-15 16:00",4.67,"Working","OW314"
"2023-04-15 17:00",4.672,"Working","OW314"
"2023-04-15 18:00",4.673,"Working","OW314"
"2023-04-15 19:00",4.672,"Working","OW314"
"2023-04-15 20:00",4.675,"Working","OW314"
"2023-04-15 21:00",4.675,"Working","OW314"
"2023-04-15 22:00",4.674,"Working","OW314"
"2023-04-15 23:00",4.675,"Working","OW314"
"2023-04-16 00:00",4.675,"Working","OW314"
"2023-04-16 01:00",4.678,"Working","OW314"
"2023-04-16 02:00",4.674,"Working","OW314"
"2023-04-16 03:00",4.672,"Working","OW314"
"2023-04-16 04:00",4.672,"Working","OW314"
"2023-04-16 05:00",4.672,"Working","OW314"
"2023-04-16 06:00",4.671,"Working","OW314"
"2023-04-16 07:00",4.665,"Working","OW314"
"2023-04-16 08:00",4.662,"Working","OW314"
"2023-04-16 09:00",4.656,"Working","OW314"
"2023-04-16 10:00",4.653,"Working","OW314"
"2023-04-16 11:00",4.643,"Working","OW314"
"2023-04-16 12:00",4.632,"Working","OW314"
"2023-04-16 13:00",4.626,"Working","OW314"
"2023-04-16 14:00",4.613,"Working","OW314"
"2023-04-16 15:00",4.607,"Working","OW314"
"2023-04-16 16:00",4.604,"Working","OW314"
"2023-04-16 17:00",4.599,"Working","OW314"
"2023-04-16 18:00",4.601,"Working","OW314"
"2023-04-16 19:00",4.602,"Working","OW314"
"2023-04-16 20:00",4.603,"Working","OW314"
"2023-04-16 21:00",4.603,"Working","OW314"
"2023-04-16 22:00",4.604,"Working","OW314"
"2023-04-16 23:00",4.606,"Working","OW314"
"2023-04-17 00:00",4.61,"Working","OW314"
"2023-04-17 01:00",4.612,"Working","OW314"
"2023-04-17 02:00",4.614,"Working","OW314"
"2023-04-17 03:00",4.617,"Working","OW314"
"2023-04-17 04:00",4.623,"Working","OW314"
"2023-04-17 05:00",4.628,"Working","OW314"
"2023-04-17 06:00",4.635,"Working","OW314"
"2023-04-17 07:00",4.638,"Working","OW314"
"2023-04-17 08:00",4.641,"Working","OW314"
"2023-04-17 09:00",4.647,"Working","OW314"
"2023-04-17 10:00",4.646,"Working","OW314"
"2023-04-17 11:00",4.647,"Working","OW314"
"2023-04-17 12:00",4.649,"Working","OW314"
"2023-04-17 13:00",4.646,"Working","OW314"
"2023-04-17 14:00",4.643,"Working","OW314"
"2023-04-17 15:00",4.637,"Working","OW314"
"2023-04-17 16:00",4.628,"Working","OW314"
"2023-04-17 17:00",4.621,"Working","OW314"
"2023-04-17 18:00",4.611,"Working","OW314"
"2023-04-17 19:00",4.6,"Working","OW314"
"2023-04-17 20:00",4.592,"Working","OW314"
"2023-04-17 21:00",4.587,"Working","OW314"
"2023-04-17 22:00",4.584,"Working","OW314"
"2023-04-17 23:00",4.585,"Working","OW314"
"2023-04-18 00:00",4.581,"Working","OW314"
"2023-04-18 01:00",4.584,"Working","OW314"
"2023-04-18 02:00",4.583,"Working","OW314"
"2023-04-18 03:00",4.584,"Working","OW314"
"2023-04-18 04:00",4.587,"Working","OW314"
"2023-04-18 05:00",4.587,"Working","OW314"
"2023-04-18 06:00",4.588,"Working","OW314"
"2023-04-18 07:00",4.589,"Working","OW314"
"2023-04-18 08:00",4.59,"Working","OW314"
"2023-04-18 09:00",4.59,"Working","OW314"
"2023-04-18 10:00",4.592,"Working","OW314"
"2023-04-18 11:00",4.591,"Working","OW314"
"2023-04-18 12:00",4.592,"Working","OW314"
"2023-04-18 13:00",4.591,"Working","OW314"
"2023-04-18 14:00",4.594,"Working","OW314"
"2023-04-18 15:00",4.596,"Working","OW314"
"2023-04-18 16:00",4.6,"Working","OW314"
"2023-04-18 17:00",4.602,"Working","OW314"
"2023-04-18 18:00",4.61,"Working","OW314"
"2023-04-18 19:00",4.615,"Working","OW314"
"2023-04-18 20:00",4.624,"Working","OW314"
"2023-04-18 21:00",4.63,"Working","OW314"
"2023-04-18 22:00",4.638,"Working","OW314"
"2023-04-18 23:00",4.644,"Working","OW314"
"2023-04-19 00:00",4.651,"Working","OW314"
"2023-04-19 01:00",4.657,"Working","OW314"
"2023-04-19 02:00",4.665,"Working","OW314"
"2023-04-19 03:00",4.669,"Working","OW314"
"2023-04-19 04:00",4.675,"Working","OW314"
"2023-04-19 05:00",4.681,"Working","OW314"
"2023-04-19 06:00",4.685,"Working","OW314"
"2023-04-19 07:00",4.691,"Working","OW314"
"2023-04-19 08:00",4.692,"Working","OW314"
"2023-04-19 09:00",4.697,"Working","OW314"
"2023-04-19 10:00",4.699,"Working","OW314"
"2023-04-19 11:00",4.702,"Working","OW314"
"2023-04-19 12:00",4.704,"Working","OW314"
"2023-04-19 13:00",4.705,"Working","OW314"
"2023-04-19 14:00",4.708,"Working","OW314"
"2023-04-19 15:00",4.71,"Working","OW314"
"2023-04-19 16:00",4.712,"Working","OW314"
"2023-04-19 17:00",4.717,"Working","OW314"
"2023-04-19 18:00",4.72,"Working","OW314"
"2023-04-19 19:00",4.723,"Working","OW314"
"2023-04-19 20:00",4.727,"Working","OW314"
"2023-04-19 21:00",4.731,"Working","OW314"
"2023-04-19 22:00",4.734,"Working","OW314"
"2023-04-19 23:00",4.74,"Working","OW314"
"2023-04-20 00:00",4.742,"Working","OW314"
"2023-04-20 01:00",4.747,"Working","OW314"
"2023-04-20 02:00",4.753,"Working","OW314"
"2023-04-20 03:00",4.755,"Working","OW314"
"2023-04-20 04:00",4.76,"Working","OW314"
"2023-04-20 05:00",4.763,"Working","OW314"
"2023-04-20 06:00",4.769,"Working","OW314"
"2023-04-20 07:00",4.77,"Working","OW314"
"2023-04-20 08:00",4.773,"Working","OW314"
"2023-04-20 09:00",4.775,"Working","OW314"
"2023-04-20 10:00",4.776,"Working","OW314"
"2023-04-20 11:00",4.778,"Working","OW314"
"2023-04-20 12:00",4.779,"Working","OW314"
"2023-04-20 13:00",4.777,"Working","OW314"
"2023-04-20 14:00",4.774,"Working","OW314"
"2023-04-20 15:00",4.767,"Working","OW314"
"2023-04-20 16:00",4.76,"Working","OW314"
"2023-04-20 17:00",4.751,"Working","OW314"